ICO G1

Last updated on Thu Oct 30 2025 00:02:48 GMT+0000 (Coordinated Universal Time)

1 32763U 08016A 25302.45776038 -.00000160 00000+0 00000+0 0 9994 2 32763 5.4966 36.6689 0002340 169.3100 264.0064 1.00271885 64239
UTC large
Height (km)
Speed (km/s)
/
Latitude / Longitude
Inclination (degrees)
Orbital Period (minutes)
Azimuth
Elevation
Range (km)
Doppler Factor

Next 0 passes for location: London (51.5072 / 0.1276)

Sorry there are no passes over London.